{"data":{"norad_id":66823,"epoch":"2026-09-20T06:16:18.784128Z","epoch_age_seconds":104652,"freshness":"FRESH","line1":"1 66823U 25280C   26263.26132852  .00003872  00000+0  33211-3 0  9992","line2":"2 66823  70.0005 203.7572 0002908 268.8703  91.2123 14.98327859 45225","mean_motion":14.98327859,"eccentricity":0.0002908,"inclination_deg":70.0005,"raan_deg":203.7572,"arg_perigee_deg":268.8703,"mean_anomaly_deg":91.2123,"bstar":0.00033211,"rev_number":4522,"period_min":96.107136455507,"perigee_km":570.04139380015,"apogee_km":574.08362983622,"semimajor_km":6950.1995118182,"source":"CELESTRAK","updated_at":"2026-09-21T09:00:36.019795Z"}}